Miscellaneous Local Product
Issued by NWS Hastings, NE

Home | Current Version | Previous Version | Graphics & Text | Print | Product List | Glossary On
Versions: 1 2 3 4 5 6 7 8 9 10 11 12 13 14 15 16 17 18 19 20 21 22 23 24 25 26 27 28 29 30 31 32 33 34 35 36 37 38 39 40 41 42 43 44 45 46 47 48 49 50
237
AXUS43 KGID 012002
MISGRI

GID CWA HOURLY WEATHER ROUNDUP
NATIONAL WEATHER SERVICE HASTINGS NE
200 PM CST THU DEC 01 2016

NOTE: "FAIR" INDICATES FEW OR NO CLOUDS BELOW 12,000 FEET WITH NO
SIGNIFICANT WEATHER AND/OR OBSTRUCTIONS TO VISIBILITY.

...SOUTH CENTRAL NEBRASKA...

CITY           SKY/WX    TMP DP  RH WIND       PRES   REMARKS
GRAND ISLAND   MOSUNNY   41  25  53 VRB7      29.98F
HASTINGS       SUNNY     42  23  46 W7        29.98F
KEARNEY        SUNNY     43  21  42 S6        29.96F
ORD            SUNNY     39  21  48 CALM      29.95F
YORK           SUNNY     37  25  60 NW9       29.98F WCI  31
AURORA         PTSUNNY   39  23  52 N7        29.97F WCI  34
LEXINGTON      SUNNY     42  20  41 CALM      29.95F
HOLDREGE       SUNNY     42  22  43 S6        29.96F
HEBRON         SUNNY     43  22  44 W5        30.00S

...NEBRASKA PANHANDLE...

CITY           SKY/WX    TMP DP  RH WIND       PRES   REMARKS
CHADRON        CLOUDY    42  14  32 NW14      29.92F
ALLIANCE       SUNNY     41  10  28 NW9       29.90F
SCOTTSBLUFF    SUNNY     42  14  32 NW9       29.92F
SIDNEY         SUNNY     41  11  29 NW10      29.92F

...WESTERN AND NORTH CENTRAL NEBRASKA...

CITY           SKY/WX    TMP DP  RH WIND       PRES   REMARKS
VALENTINE      CLOUDY    34  22  61 N6        29.94F WCI  29
AINSWORTH      CLOUDY    32  24  71 NW7       29.94S WCI  26
ONEILL         CLOUDY    32  26  77 NW8       29.96S WCI  25
BROKEN BOW     SUNNY     42  19  39 NW5       29.93F
IMPERIAL       SUNNY     45  14  28 W9        29.93F
NORTH PLATTE   SUNNY     43  18  36 SW5       29.94F
MCCOOK         SUNNY     42  18  37 SW6       29.97F

...EASTERN NEBRASKA...

CITY           SKY/WX    TMP DP  RH WIND       PRES   REMARKS
NORFOLK        CLOUDY    34  24  67 NW8       29.97R WCI  27
SO SIOUX CITY  CLOUDY    37  29  72 NW13      29.97F WCI  29
TEKAMAH        CLOUDY    36  27  69 W12       29.99S WCI  28
COLUMBUS       CLOUDY    37  25  60 W6        29.99F WCI  33
ALBION         CLOUDY    35  23  62 W6        29.98S WCI  30
OMAHA EPPLEY   CLOUDY    37  26  64 SW6       30.01R WCI  32
OFFUTT AFB     CLOUDY    37  28  67 NW9       30.00S WCI  31
MILLARD        CLOUDY    38  28  66 W6        30.00F WCI  33
LINCOLN        SUNNY     42  24  49 VRB5      30.00F
NEBRASKA CITY  MOSUNNY   39  23  51 NW7       30.00F WCI  34
BEATRICE       SUNNY     42  26  52 W9        30.00S
FALLS CITY     SUNNY     41  26  55 W7        30.01F

...NORTHERN KANSAS...

CITY           SKY/WX    TMP DP  RH WIND       PRES   REMARKS
GOODLAND       SUNNY     43  10  26 S8        29.95F
HILL CITY      SUNNY     48  17  29 VRB5      29.99F
NORTON         CLEAR     46  12  25 SW5       29.96F
PHILLIPSBURG   SUNNY     46  18  31 SW6       29.99F
SMITH CENTER   SUNNY     45  21  39 SW7       30.00F
BELOIT         SUNNY     43  19  39 W5        30.00F
RUSSELL        SUNNY     47  18  31 CALM      29.98F
CONCORDIA      SUNNY     43  24  47 SW6       30.00F
SALINA         SUNNY     47  24  40 S3        30.02F
TOPEKA         SUNNY     45  25  45 W8        30.03F



USA.gov is the U.S. government's official web portal to all federal, state and local government web resources and services.